FORMOSAT 7-5 (44358 NORAD) Tracking and Keplerian Element Data

This shows tracking and keplerian element data for the satellite.

Feedback or suggestion? Click here.




ElementValue
Catalog44358
NameFORMOSAT 7-5
Epoch Orbit367
Epoch Day201.7998178
Epoch Year2019
RAAN44.1625
Inclination24.0025
Eccentricity0.0013816
Argument of Perigee116.6509
Mean Anonmoly243.5377
Mean Motion14.53413757
Decay Rate3.02E-06
L11 44358U 19036V 19201.79981780 .00000302 00000-0 21167-4 0 9991
L22 44358 24.0025 44.1625 0013816 116.6509 243.5377 14.53413757 3675

Live tracking and technical data element details for FORMOSAT 7-5 (NORAD 44358). FORMOSAT 7-5 can be tracked NOW for your location showing map with azimuth and elevation plus other details from your city location.

Track the satellite on the map from your city or location and see movement details for azimuth, elevation, latitude, longitude, range, height, and movement on the map or in text.







IsCatalogInMostPopularTable: catalog: 44358, numindb: 9
Update: records affected: 1



GetName: 44358 FORMOSAT 7-5

Hit Count: updated at: Sun, 21 Jul 2019 20:56:08 GMT